Regional Weather Roundup
Issued by NWS

Home | Current Version | Previous Version | Graphics & Text | Print | Product List | Glossary On
Versions: 1 2 3 4 5 6 7 8 9 10 11 12 13 14 15 16 17 18 19 20 21 22 23 24 25 26 27 28 29 30 31 32 33 34 35 36 37 38 39 40 41 42 43 44 45 46 47 48 49 50
000
ASUS43 KIND 162159
RWRIN

WEATHER ROUNDUP FOR INDIANA
NATIONAL WEATHER SERVICE INDIANAPOLIS IN
500 PM EST TUE JAN 16 2018

NOTE: "FAIR" INDICATES FEW OR NO CLOUDS BELOW 12,000 FEET WITH NO
SIGNIFICANT WEATHER AND/OR OBSTRUCTIONS TO VISIBILITY.

* - STATION DOES NOT REPORT WEATHER SUCH AS PRECIPITATION OR FOG.

+ - STATION NOT QUALITY CONTROLLED BY THE NATIONAL WEATHER SERVICE.
    USE DATA WITH CAUTION...ESPECIALLY DEWPOINT AND RELATIVE
    HUMIDITY OBSERVATIONS.

INZ001>003-010>013-019-020-162300-
NORTHWEST INDIANA

CITY           SKY/WX    TMP DP  RH WIND       PRES   REMARKS
GARY /AIRPORT/ MOCLDY    25  12  58 W12       30.46R WCI  14
KNOX *+        CLOUDY    14  10  85 S7        30.46R WCI   4
MONTICELLO +   LGT SNOW   9   3  78 SW7       30.50R WCI  -3
VALPARAISO     HVY SNOW  20  16  84 SW7       30.45R VSB 1/4 WCI  11

$$

LMZ046-743>745-162300-
SOUTHERN LAKE MICHIGAN

STATION/POSITION TIME  TEMP    WIND        PRES    WAVE
                       AIR SEA DIR/SP/G            HT
                 (UTC) (F)     (DEG/KT/KT) (MB)    (FT)
BURNS HARBOR     2140   24     320/ 14/ 21 1030.8S
MICHIGAN CITY    2130          160/  8/  9   N/A

$$

INZ004-005-014>016-021>024-162300-
NORTH CENTRAL INDIANA

CITY           SKY/WX    TMP DP  RH WIND       PRES   REMARKS
GOSHEN         MOCLDY     7   1  76 SW7       30.46R WCI  -5
PERU/GRISSOM   FLURRIES   9   5  85 W14       30.48R WCI  -8
SOUTH BEND     FAIR      11   5  77 SW8       30.46R WCI  -1

$$

INZ006>009-017-018-025>027-162300-
NORTHEAST INDIANA

CITY           SKY/WX    TMP DP  RH WIND       PRES   REMARKS
FORT WAYNE     FLURRIES   8   1  73 SW12      30.47R WCI  -7
KENDALLVILLE + FLURRIES   8   2  76 W9        30.43R WCI  -5

$$

INZ028-029-035-036-043>045-051>053-162300-
WEST CENTRAL INDIANA

CITY           SKY/WX    TMP DP  RH WIND       PRES   REMARKS
GREENCASTLE +  LGT SNOW   5  -2  72 W7        30.54R WCI  -7
LAFAYETTE      CLOUDY     8   3  80 SW9       30.53R WCI  -5
TERRE HAUTE    FLURRIES   6  -2  69 W8        30.58S WCI  -7

$$

INZ030>032-037>040-046>048-054>057-064-065-162300-
CENTRAL INDIANA

CITY           SKY/WX    TMP DP  RH WIND       PRES   REMARKS
COLUMBUS       LGT SNOW   9   1  72 W7        30.55R WCI  -3
GREENWOOD *+   CLOUDY     7  -1  70 W7        30.53R WCI  -5
INDIANAPOLIS   FLURRIES   6  -1  73 W13       30.53R WCI -10
-EAGLE CREEK   FLURRIES   6  -2  69 VRB7      30.52R WCI  -6
MT COMFORT *+  CLOUDY     7   3  85 W9        30.51R WCI  -7
SHELBYVILLE    CLOUDY     7  -1  70 W10       30.53R WCI  -8

$$

INZ033-034-041-042-049-050-058-059-162300-
EAST CENTRAL INDIANA

CITY           SKY/WX    TMP DP  RH WIND       PRES   REMARKS
MUNCIE         LGT SNOW   7  -1  70 W8        30.49R WCI  -6
RICHMOND +     FLURRIES   5   0  78 W12       30.47R WCI -11

$$

INZ060-061-067>069-081>083-085>088-162300-
SOUTHWEST INDIANA

CITY           SKY/WX    TMP DP  RH WIND       PRES   REMARKS
EVANSVILLE     CLOUDY     7  -2  66 NW7       30.64S WCI  -5
HUNTINGBURG +  CLOUDY     7  -2  66 W9        30.62R WCI  -7

$$

INZ062-063-066-070>080-084-089>092-162300-
SOUTH CENTRAL AND SOUTHEAST INDIANA

CITY           SKY/WX    TMP DP  RH WIND       PRES   REMARKS
BLOOMINGTON    LGT SNOW   4  -3  73 W8        30.55R WCI  -9
FRENCH LICK *+ CLOUDY     5  -6  61 SW3       30.58R
MADISON *+     MOCLDY    10   0  61 W5        30.55R WCI   2
SEYMOUR +      CLOUDY    10   0  61 W12       30.57R WCI  -4

$$





USA.gov is the U.S. government's official web portal to all federal, state and local government web resources and services.